Find Starlink 2692

NORAD ID: 48434 Int'l Des: 2021-040 Owner: SPXS Country: US Constellation: starlink operational
LEOCIRCULAR

リアルタイム位置

3D地球を読み込み中...

Starlink 2692について

説明を読み込み中...

次回通過

Passes for default location (London). Set your location on the main map for personalized predictions.

高度履歴

Loading altitude history...

軌道要素

1 48434U 21040G 26125.71352757 .00003540 00000-0 12576-3 0 9999
2 48434 53.1595 247.6433 0001249 81.6433 278.4710 15.31707705275776
Epoch: May 5, 2026 • Age: 19 hours

現在のステータス

高度 473.2 km
速度 7.63 km/s
衛星直下点 -8.61°S, 164.88°W
打ち上げ日 May 9, 2021
運用期間 4.9 years
タイプ internet

技術仕様

分類 Payload
質量 260.00 kg
乾燥質量 248.00 kg
総質量 260.00 kg
長さ 0.20 m
直径 2.80 m
スパン 9.00 m
形状 Box + pan
製造者 SPXS
バスタイプ Starlink
フェーズステータス In Orbit
所有者/国 SPXS/US

Most Searched